Location: Unspecified
(54.1780°N, 0.0000°E)
Time: 14:20:55
(UTC+00:00)

Explorer 7 - Pass Details

Date: 26 June 2019
Orbit: 485 x 680 km, 50.3° (Epoch: 16 July)

Event Time Altitude Azimuth Distance (km) Brightness Sun altitude
Rises 12:20:11 0° 277° (W) 2,885 10.5 59.0°
Reaches altitude 10° 12:22:39 10° 267° (W) 2,010 9.9 59.0°
Maximum altitude 12:26:41 30° 206° (SSW) 1,171 9.7 58.9°
Drops below altitude 10° 12:30:51 10° 147° (SSE) 2,085 10.2 58.7°
Sets 12:33:27 0° 136° (SE) 3,012 10.8 58.6°
